owner,sensor,date,latitude,longitude,sea_surface_height_above_sea_level,qcFlag 
COMPS,ioos:station:USF.COMPS:FHP:1,2014-05-01T00:06:00Z,28.1530,-82.8010,-0.498,1111122 
COMPS,ioos:station:USF.COMPS:FHP:1,2014-05-01T00:12:00Z,28.1530,-82.8010,-0.503,1111122 
COMPS,ioos:station:USF.COMPS:FHP:1,2014-05-01T00:18:00Z,28.1530,-82.8010,-0.509,1111122 
COMPS,ioos:station:USF.COMPS:FHP:1,2014-05-01T00:24:00Z,28.1530,-82.8010,-0.515,1111122 
COMPS,ioos:station:USF.COMPS:FHP:1,2014-05-01T00:36:00Z,28.1530,-82.8010,-0.519,1111122 
COMPS,ioos:station:USF.COMPS:FHP:1,2014-05-01T00:42:00Z,28.1530,-82.8010,-0.509,1111122 
COMPS,ioos:station:USF.COMPS:FHP:1,2014-05-01T00:48:00Z,28.1530,-82.8010,-0.504,1111122 
COMPS,ioos:station:USF.COMPS:FHP:1,2014-05-01T00:54:00Z,28.1530,-82.8010,-0.495,1111122 
COMPS,ioos:station:USF.COMPS:FHP:1,2014-05-01T01:00:00Z,28.1530,-82.8010,-0.495,1111122 
COMPS,ioos:station:USF.COMPS:FHP:1,2014-05-01T01:12:00Z,28.1530,-82.8010,-0.489,1111122 
COMPS,ioos:station:USF.COMPS:FHP:1,2014-05-01T01:24:00Z,28.1530,-82.8010,-0.467,1111122 
COMPS,ioos:station:USF.COMPS:FHP:1,2014-05-01T01:30:00Z,28.1530,-82.8010,-0.446,1111122 
COMPS,ioos:station:USF.COMPS:FHP:1,2014-05-01T01:42:00Z,28.1530,-82.8010,-0.427,1111122 
COMPS,ioos:station:USF.COMPS:FHP:1,2014-05-01T01:48:00Z,28.1530,-82.8010,-0.41,1111122 
COMPS,ioos:station:USF.COMPS:FHP:1,2014-05-01T01:54:00Z,28.1530,-82.8010,-0.393,1111122 
COMPS,ioos:station:USF.COMPS:FHP:1,2014-05-01T02:00:00Z,28.1530,-82.8010,-0.396,1111122 
COMPS,ioos:station:USF.COMPS:FHP:1,2014-05-01T02:06:00Z,28.1530,-82.8010,-0.371,1111122 
COMPS,ioos:station:USF.COMPS:FHP:1,2014-05-01T02:12:00Z,28.1530,-82.8010,-0.357,1111122 
COMPS,ioos:station:USF.COMPS:FHP:1,2014-05-01T02:18:00Z,28.1530,-82.8010,-0.358,1111122 
COMPS,ioos:station:USF.COMPS:FHP:1,2014-05-01T02:24:00Z,28.1530,-82.8010,-0.34,1111122 
COMPS,ioos:station:USF.COMPS:FHP:1,2014-05-01T02:30:00Z,28.1530,-82.8010,-0.313,1111122 
COMPS,ioos:station:USF.COMPS:FHP:1,2014-05-01T02:36:00Z,28.1530,-82.8010,-0.295,1111122 
COMPS,ioos:station:USF.COMPS:FHP:1,2014-05-01T02:42:00Z,28.1530,-82.8010,-0.275,1111122 
COMPS,ioos:station:USF.COMPS:FHP:1,2014-05-01T02:48:00Z,28.1530,-82.8010,-0.257,1111122 
COMPS,ioos:station:USF.COMPS:FHP:1,2014-05-01T02:54:00Z,28.1530,-82.8010,-0.23,1111122 
COMPS,ioos:station:USF.COMPS:FHP:1,2014-05-01T03:00:00Z,28.1530,-82.8010,-0.206,1111122 
COMPS,ioos:station:USF.COMPS:FHP:1,2014-05-01T03:06:00Z,28.1530,-82.8010,-0.189,1111122 
COMPS,ioos:station:USF.COMPS:FHP:1,2014-05-01T03:18:00Z,28.1530,-82.8010,-0.151,1111122 
COMPS,ioos:station:USF.COMPS:FHP:1,2014-05-01T03:24:00Z,28.1530,-82.8010,-0.117,1111122 
COMPS,ioos:station:USF.COMPS:FHP:1,2014-05-01T03:30:00Z,28.1530,-82.8010,-0.093,1111122 
COMPS,ioos:station:USF.COMPS:FHP:1,2014-05-01T03:36:00Z,28.1530,-82.8010,-0.058,1111122 
COMPS,ioos:station:USF.COMPS:FHP:1,2014-05-01T03:42:00Z,28.1530,-82.8010,-0.034,1111122 
COMPS,ioos:station:USF.COMPS:FHP:1,2014-05-01T03:48:00Z,28.1530,-82.8010,-0.009,1111122 
COMPS,ioos:station:USF.COMPS:FHP:1,2014-05-01T03:54:00Z,28.1530,-82.8010,0.015,1111122 
COMPS,ioos:station:USF.COMPS:FHP:1,2014-05-01T04:00:00Z,28.1530,-82.8010,0.032,1111122 
COMPS,ioos:station:USF.COMPS:FHP:1,2014-05-01T04:06:00Z,28.1530,-82.8010,0.059,1111122 
COMPS,ioos:station:USF.COMPS:FHP:1,2014-05-01T04:12:00Z,28.1530,-82.8010,0.08,1111122 
COMPS,ioos:station:USF.COMPS:FHP:1,2014-05-01T04:18:00Z,28.1530,-82.8010,0.116,1111122 
COMPS,ioos:station:USF.COMPS:FHP:1,2014-05-01T04:24:00Z,28.1530,-82.8010,0.135,1111122 
COMPS,ioos:station:USF.COMPS:FHP:1,2014-05-01T04:30:00Z,28.1530,-82.8010,0.167,1111122 
COMPS,ioos:station:USF.COMPS:FHP:1,2014-05-01T04:36:00Z,28.1530,-82.8010,0.181,1111122 
COMPS,ioos:station:USF.COMPS:FHP:1,2014-05-01T04:42:00Z,28.1530,-82.8010,0.205,1111122 
COMPS,ioos:station:USF.COMPS:FHP:1,2014-05-01T04:48:00Z,28.1530,-82.8010,0.218,1111122 
COMPS,ioos:station:USF.COMPS:FHP:1,2014-05-01T04:54:00Z,28.1530,-82.8010,0.228,1111122 
COMPS,ioos:station:USF.COMPS:FHP:1,2014-05-01T05:00:00Z,28.1530,-82.8010,0.253,1111122 
COMPS,ioos:station:USF.COMPS:FHP:1,2014-05-01T05:06:00Z,28.1530,-82.8010,0.251,1111122 
COMPS,ioos:station:USF.COMPS:FHP:1,2014-05-01T05:12:00Z,28.1530,-82.8010,0.281,1111122 
COMPS,ioos:station:USF.COMPS:FHP:1,2014-05-01T05:18:00Z,28.1530,-82.8010,0.299,1111122 
COMPS,ioos:station:USF.COMPS:FHP:1,2014-05-01T05:24:00Z,28.1530,-82.8010,0.317,1111122 
COMPS,ioos:station:USF.COMPS:FHP:1,2014-05-01T05:30:00Z,28.1530,-82.8010,0.337,1111122 
COMPS,ioos:station:USF.COMPS:FHP:1,2014-05-01T05:36:00Z,28.1530,-82.8010,0.354,1111122 
COMPS,ioos:station:USF.COMPS:FHP:1,2014-05-01T05:42:00Z,28.1530,-82.8010,0.365,1111122 
COMPS,ioos:station:USF.COMPS:FHP:1,2014-05-01T05:48:00Z,28.1530,-82.8010,0.374,1111122 
COMPS,ioos:station:USF.COMPS:FHP:1,2014-05-01T05:54:00Z,28.1530,-82.8010,0.378,1111122 
COMPS,ioos:station:USF.COMPS:FHP:1,2014-05-01T06:00:00Z,28.1530,-82.8010,0.393,1111122 
COMPS,ioos:station:USF.COMPS:FHP:1,2014-05-01T06:06:00Z,28.1530,-82.8010,0.399,1111122 
COMPS,ioos:station:USF.COMPS:FHP:1,2014-05-01T06:12:00Z,28.1530,-82.8010,0.401,1111122 
COMPS,ioos:station:USF.COMPS:FHP:1,2014-05-01T06:18:00Z,28.1530,-82.8010,0.407,1111122 
COMPS,ioos:station:USF.COMPS:FHP:1,2014-05-01T06:24:00Z,28.1530,-82.8010,0.418,1111122 
COMPS,ioos:station:USF.COMPS:FHP:1,2014-05-01T06:30:00Z,28.1530,-82.8010,0.428,1111122 
COMPS,ioos:station:USF.COMPS:FHP:1,2014-05-01T06:36:00Z,28.1530,-82.8010,0.43,1111122 
COMPS,ioos:station:USF.COMPS:FHP:1,2014-05-01T06:42:00Z,28.1530,-82.8010,0.437,1111122 
COMPS,ioos:station:USF.COMPS:FHP:1,2014-05-01T06:48:00Z,28.1530,-82.8010,0.445,1111122 
COMPS,ioos:station:USF.COMPS:FHP:1,2014-05-01T06:54:00Z,28.1530,-82.8010,0.444,1111122 
COMPS,ioos:station:USF.COMPS:FHP:1,2014-05-01T07:00:00Z,28.1530,-82.8010,0.435,1111122 
COMPS,ioos:station:USF.COMPS:FHP:1,2014-05-01T07:06:00Z,28.1530,-82.8010,0.444,1111122 
COMPS,ioos:station:USF.COMPS:FHP:1,2014-05-01T07:12:00Z,28.1530,-82.8010,0.441,1111122 
COMPS,ioos:station:USF.COMPS:FHP:1,2014-05-01T07:18:00Z,28.1530,-82.8010,0.432,1111122 
COMPS,ioos:station:USF.COMPS:FHP:1,2014-05-01T07:24:00Z,28.1530,-82.8010,0.415,1111122 
COMPS,ioos:station:USF.COMPS:FHP:1,2014-05-01T07:30:00Z,28.1530,-82.8010,0.411,1111122 
COMPS,ioos:station:USF.COMPS:FHP:1,2014-05-01T07:36:00Z,28.1530,-82.8010,0.39,1111122 
COMPS,ioos:station:USF.COMPS:FHP:1,2014-05-01T07:42:00Z,28.1530,-82.8010,0.362,1111122 
COMPS,ioos:station:USF.COMPS:FHP:1,2014-05-01T07:48:00Z,28.1530,-82.8010,0.348,1111122 
COMPS,ioos:station:USF.COMPS:FHP:1,2014-05-01T07:54:00Z,28.1530,-82.8010,0.343,1111122 
COMPS,ioos:station:USF.COMPS:FHP:1,2014-05-01T08:00:00Z,28.1530,-82.8010,0.331,1111122 
COMPS,ioos:station:USF.COMPS:FHP:1,2014-05-01T08:06:00Z,28.1530,-82.8010,0.328,1111122 
COMPS,ioos:station:USF.COMPS:FHP:1,2014-05-01T08:12:00Z,28.1530,-82.8010,0.306,1111122 
COMPS,ioos:station:USF.COMPS:FHP:1,2014-05-01T08:18:00Z,28.1530,-82.8010,0.292,1111122 
COMPS,ioos:station:USF.COMPS:FHP:1,2014-05-01T08:24:00Z,28.1530,-82.8010,0.283,1111122 
COMPS,ioos:station:USF.COMPS:FHP:1,2014-05-01T08:30:00Z,28.1530,-82.8010,0.268,1111122 
COMPS,ioos:station:USF.COMPS:FHP:1,2014-05-01T08:36:00Z,28.1530,-82.8010,0.259,1111122 
COMPS,ioos:station:USF.COMPS:FHP:1,2014-05-01T08:42:00Z,28.1530,-82.8010,0.24,1111122 
COMPS,ioos:station:USF.COMPS:FHP:1,2014-05-01T08:48:00Z,28.1530,-82.8010,0.224,1111122 
COMPS,ioos:station:USF.COMPS:FHP:1,2014-05-01T08:54:00Z,28.1530,-82.8010,0.216,1111122 
COMPS,ioos:station:USF.COMPS:FHP:1,2014-05-01T09:00:00Z,28.1530,-82.8010,0.204,1111122 
COMPS,ioos:station:USF.COMPS:FHP:1,2014-05-01T09:06:00Z,28.1530,-82.8010,0.193,1111122 
COMPS,ioos:station:USF.COMPS:FHP:1,2014-05-01T09:12:00Z,28.1530,-82.8010,0.181,1111122 
COMPS,ioos:station:USF.COMPS:FHP:1,2014-05-01T09:18:00Z,28.1530,-82.8010,0.161,1111122 
COMPS,ioos:station:USF.COMPS:FHP:1,2014-05-01T09:24:00Z,28.1530,-82.8010,0.144,1111122 
COMPS,ioos:station:USF.COMPS:FHP:1,2014-05-01T09:30:00Z,28.1530,-82.8010,0.121,1111122 
COMPS,ioos:station:USF.COMPS:FHP:1,2014-05-01T09:36:00Z,28.1530,-82.8010,0.105,1111122 
COMPS,ioos:station:USF.COMPS:FHP:1,2014-05-01T09:42:00Z,28.1530,-82.8010,0.102,1111122 
COMPS,ioos:station:USF.COMPS:FHP:1,2014-05-01T09:48:00Z,28.1530,-82.8010,0.086,1111122 
COMPS,ioos:station:USF.COMPS:FHP:1,2014-05-01T09:54:00Z,28.1530,-82.8010,0.088,1111122 
COMPS,ioos:station:USF.COMPS:FHP:1,2014-05-01T10:00:00Z,28.1530,-82.8010,0.082,1111122 
COMPS,ioos:station:USF.COMPS:FHP:1,2014-05-01T10:06:00Z,28.1530,-82.8010,0.078,1111122 
COMPS,ioos:station:USF.COMPS:FHP:1,2014-05-01T10:12:00Z,28.1530,-82.8010,0.068,1111122 
COMPS,ioos:station:USF.COMPS:FHP:1,2014-05-01T10:18:00Z,28.1530,-82.8010,0.068,1111122 
COMPS,ioos:station:USF.COMPS:FHP:1,2014-05-01T10:24:00Z,28.1530,-82.8010,0.065,1111122 
COMPS,ioos:station:USF.COMPS:FHP:1,2014-05-01T10:30:00Z,28.1530,-82.8010,0.065,1111122 
COMPS,ioos:station:USF.COMPS:FHP:1,2014-05-01T10:36:00Z,28.1530,-82.8010,0.068,1111122 
COMPS,ioos:station:USF.COMPS:FHP:1,2014-05-01T10:48:00Z,28.1530,-82.8010,0.058,1111122 
COMPS,ioos:station:USF.COMPS:FHP:1,2014-05-01T11:00:00Z,28.1530,-82.8010,0.049,1111122 
COMPS,ioos:station:USF.COMPS:FHP:1,2014-05-01T11:06:00Z,28.1530,-82.8010,0.05,1111122 
COMPS,ioos:station:USF.COMPS:FHP:1,2014-05-01T11:12:00Z,28.1530,-82.8010,0.057,1111122 
COMPS,ioos:station:USF.COMPS:FHP:1,2014-05-01T11:18:00Z,28.1530,-82.8010,0.052,1111122 
COMPS,ioos:station:USF.COMPS:FHP:1,2014-05-01T11:30:00Z,28.1530,-82.8010,0.055,1111122 
COMPS,ioos:station:USF.COMPS:FHP:1,2014-05-01T11:36:00Z,28.1530,-82.8010,0.047,1111122 
COMPS,ioos:station:USF.COMPS:FHP:1,2014-05-01T11:42:00Z,28.1530,-82.8010,0.058,1111122 
COMPS,ioos:station:USF.COMPS:FHP:1,2014-05-01T11:48:00Z,28.1530,-82.8010,0.059,1111122 
COMPS,ioos:station:USF.COMPS:FHP:1,2014-05-01T11:54:00Z,28.1530,-82.8010,0.05,1111122 
COMPS,ioos:station:USF.COMPS:FHP:1,2014-05-01T12:00:00Z,28.1530,-82.8010,0.06,1111122 
COMPS,ioos:station:USF.COMPS:FHP:1,2014-05-01T12:06:00Z,28.1530,-82.8010,0.058,1111122 
COMPS,ioos:station:USF.COMPS:FHP:1,2014-05-01T12:12:00Z,28.1530,-82.8010,0.061,1111122 
COMPS,ioos:station:USF.COMPS:FHP:1,2014-05-01T12:18:00Z,28.1530,-82.8010,0.066,1111122 
COMPS,ioos:station:USF.COMPS:FHP:1,2014-05-01T12:24:00Z,28.1530,-82.8010,0.071,1111122 
COMPS,ioos:station:USF.COMPS:FHP:1,2014-05-01T12:30:00Z,28.1530,-82.8010,0.084,1111122 
COMPS,ioos:station:USF.COMPS:FHP:1,2014-05-01T12:36:00Z,28.1530,-82.8010,0.089,1111122 
COMPS,ioos:station:USF.COMPS:FHP:1,2014-05-01T12:42:00Z,28.1530,-82.8010,0.105,1111122 
COMPS,ioos:station:USF.COMPS:FHP:1,2014-05-01T12:48:00Z,28.1530,-82.8010,0.11,1111122 
COMPS,ioos:station:USF.COMPS:FHP:1,2014-05-01T12:54:00Z,28.1530,-82.8010,0.115,1111122 
COMPS,ioos:station:USF.COMPS:FHP:1,2014-05-01T13:00:00Z,28.1530,-82.8010,0.126,1111122 
COMPS,ioos:station:USF.COMPS:FHP:1,2014-05-01T13:06:00Z,28.1530,-82.8010,0.134,1111122 
COMPS,ioos:station:USF.COMPS:FHP:1,2014-05-01T13:12:00Z,28.1530,-82.8010,0.147,1111122 
COMPS,ioos:station:USF.COMPS:FHP:1,2014-05-01T13:18:00Z,28.1530,-82.8010,0.16,1111122 
COMPS,ioos:station:USF.COMPS:FHP:1,2014-05-01T13:24:00Z,28.1530,-82.8010,0.167,1111122 
COMPS,ioos:station:USF.COMPS:FHP:1,2014-05-01T13:30:00Z,28.1530,-82.8010,0.184,1111122 
COMPS,ioos:station:USF.COMPS:FHP:1,2014-05-01T13:36:00Z,28.1530,-82.8010,0.197,1111122 
COMPS,ioos:station:USF.COMPS:FHP:1,2014-05-01T13:42:00Z,28.1530,-82.8010,0.218,1111122 
COMPS,ioos:station:USF.COMPS:FHP:1,2014-05-01T13:48:00Z,28.1530,-82.8010,0.237,1111122 
COMPS,ioos:station:USF.COMPS:FHP:1,2014-05-01T13:54:00Z,28.1530,-82.8010,0.255,1111122 
COMPS,ioos:station:USF.COMPS:FHP:1,2014-05-01T14:00:00Z,28.1530,-82.8010,0.271,1111122 
COMPS,ioos:station:USF.COMPS:FHP:1,2014-05-01T14:06:00Z,28.1530,-82.8010,0.284,1111122 
COMPS,ioos:station:USF.COMPS:FHP:1,2014-05-01T14:12:00Z,28.1530,-82.8010,0.31,1111122 
COMPS,ioos:station:USF.COMPS:FHP:1,2014-05-01T14:18:00Z,28.1530,-82.8010,0.328,1111122 
COMPS,ioos:station:USF.COMPS:FHP:1,2014-05-01T14:24:00Z,28.1530,-82.8010,0.347,1111122 
COMPS,ioos:station:USF.COMPS:FHP:1,2014-05-01T14:30:00Z,28.1530,-82.8010,0.367,1111122 
COMPS,ioos:station:USF.COMPS:FHP:1,2014-05-01T14:36:00Z,28.1530,-82.8010,0.378,1111122 
COMPS,ioos:station:USF.COMPS:FHP:1,2014-05-01T14:42:00Z,28.1530,-82.8010,0.398,1111122 
COMPS,ioos:station:USF.COMPS:FHP:1,2014-05-01T14:48:00Z,28.1530,-82.8010,0.416,1111122 
COMPS,ioos:station:USF.COMPS:FHP:1,2014-05-01T14:54:00Z,28.1530,-82.8010,0.438,1111122 
COMPS,ioos:station:USF.COMPS:FHP:1,2014-05-01T15:00:00Z,28.1530,-82.8010,0.458,1111122 
COMPS,ioos:station:USF.COMPS:FHP:1,2014-05-01T15:06:00Z,28.1530,-82.8010,0.477,1111122 
COMPS,ioos:station:USF.COMPS:FHP:1,2014-05-01T15:12:00Z,28.1530,-82.8010,0.498,1111122 
COMPS,ioos:station:USF.COMPS:FHP:1,2014-05-01T15:18:00Z,28.1530,-82.8010,0.52,1111122 
COMPS,ioos:station:USF.COMPS:FHP:1,2014-05-01T15:24:00Z,28.1530,-82.8010,0.534,1111122 
COMPS,ioos:station:USF.COMPS:FHP:1,2014-05-01T15:30:00Z,28.1530,-82.8010,0.549,1111122 
COMPS,ioos:station:USF.COMPS:FHP:1,2014-05-01T15:36:00Z,28.1530,-82.8010,0.566,1111122 
COMPS,ioos:station:USF.COMPS:FHP:1,2014-05-01T15:42:00Z,28.1530,-82.8010,0.585,1111122 
COMPS,ioos:station:USF.COMPS:FHP:1,2014-05-01T15:48:00Z,28.1530,-82.8010,0.606,1111122 
COMPS,ioos:station:USF.COMPS:FHP:1,2014-05-01T15:54:00Z,28.1530,-82.8010,0.626,1111122 
COMPS,ioos:station:USF.COMPS:FHP:1,2014-05-01T16:00:00Z,28.1530,-82.8010,0.637,1111122 
COMPS,ioos:station:USF.COMPS:FHP:1,2014-05-01T16:06:00Z,28.1530,-82.8010,0.648,1111122 
COMPS,ioos:station:USF.COMPS:FHP:1,2014-05-01T16:12:00Z,28.1530,-82.8010,0.657,1111122 
COMPS,ioos:station:USF.COMPS:FHP:1,2014-05-01T16:18:00Z,28.1530,-82.8010,0.672,1111122 
COMPS,ioos:station:USF.COMPS:FHP:1,2014-05-01T16:24:00Z,28.1530,-82.8010,0.684,1111122 
COMPS,ioos:station:USF.COMPS:FHP:1,2014-05-01T16:30:00Z,28.1530,-82.8010,0.691,1111122 
COMPS,ioos:station:USF.COMPS:FHP:1,2014-05-01T16:36:00Z,28.1530,-82.8010,0.69,1111122 
COMPS,ioos:station:USF.COMPS:FHP:1,2014-05-01T16:42:00Z,28.1530,-82.8010,0.689,1111122 
COMPS,ioos:station:USF.COMPS:FHP:1,2014-05-01T16:48:00Z,28.1530,-82.8010,0.686,1111122 
COMPS,ioos:station:USF.COMPS:FHP:1,2014-05-01T16:54:00Z,28.1530,-82.8010,0.698,1111122 
COMPS,ioos:station:USF.COMPS:FHP:1,2014-05-01T17:00:00Z,28.1530,-82.8010,0.708,1111122 
COMPS,ioos:station:USF.COMPS:FHP:1,2014-05-01T17:06:00Z,28.1530,-82.8010,0.717,1111122 
COMPS,ioos:station:USF.COMPS:FHP:1,2014-05-01T17:12:00Z,28.1530,-82.8010,0.714,1111122 
COMPS,ioos:station:USF.COMPS:FHP:1,2014-05-01T17:18:00Z,28.1530,-82.8010,0.709,1111122 
COMPS,ioos:station:USF.COMPS:FHP:1,2014-05-01T17:24:00Z,28.1530,-82.8010,0.699,1111122 
COMPS,ioos:station:USF.COMPS:FHP:1,2014-05-01T17:30:00Z,28.1530,-82.8010,0.704,1111122 
COMPS,ioos:station:USF.COMPS:FHP:1,2014-05-01T17:36:00Z,28.1530,-82.8010,0.706,1111122 
COMPS,ioos:station:USF.COMPS:FHP:1,2014-05-01T17:42:00Z,28.1530,-82.8010,0.705,1111122 
COMPS,ioos:station:USF.COMPS:FHP:1,2014-05-01T17:48:00Z,28.1530,-82.8010,0.701,1111122 
COMPS,ioos:station:USF.COMPS:FHP:1,2014-05-01T17:54:00Z,28.1530,-82.8010,0.701,1111122 
COMPS,ioos:station:USF.COMPS:FHP:1,2014-05-01T18:00:00Z,28.1530,-82.8010,0.697,1111122 
COMPS,ioos:station:USF.COMPS:FHP:1,2014-05-01T18:06:00Z,28.1530,-82.8010,0.687,1111122 
COMPS,ioos:station:USF.COMPS:FHP:1,2014-05-01T18:12:00Z,28.1530,-82.8010,0.686,1111122 
COMPS,ioos:station:USF.COMPS:FHP:1,2014-05-01T18:18:00Z,28.1530,-82.8010,0.681,1111122 
COMPS,ioos:station:USF.COMPS:FHP:1,2014-05-01T18:24:00Z,28.1530,-82.8010,0.683,1111122 
COMPS,ioos:station:USF.COMPS:FHP:1,2014-05-01T18:30:00Z,28.1530,-82.8010,0.683,1111122 
COMPS,ioos:station:USF.COMPS:FHP:1,2014-05-01T18:36:00Z,28.1530,-82.8010,0.67,1111122 
COMPS,ioos:station:USF.COMPS:FHP:1,2014-05-01T18:42:00Z,28.1530,-82.8010,0.656,1111122 
COMPS,ioos:station:USF.COMPS:FHP:1,2014-05-01T18:48:00Z,28.1530,-82.8010,0.657,1111122 
COMPS,ioos:station:USF.COMPS:FHP:1,2014-05-01T18:54:00Z,28.1530,-82.8010,0.654,1111122 
COMPS,ioos:station:USF.COMPS:FHP:1,2014-05-01T19:00:00Z,28.1530,-82.8010,0.646,1111122 
COMPS,ioos:station:USF.COMPS:FHP:1,2014-05-01T19:06:00Z,28.1530,-82.8010,0.628,1111122 
COMPS,ioos:station:USF.COMPS:FHP:1,2014-05-01T19:12:00Z,28.1530,-82.8010,0.621,1111122 
COMPS,ioos:station:USF.COMPS:FHP:1,2014-05-01T19:18:00Z,28.1530,-82.8010,0.602,1111122 
COMPS,ioos:station:USF.COMPS:FHP:1,2014-05-01T19:24:00Z,28.1530,-82.8010,0.573,1111122 
COMPS,ioos:station:USF.COMPS:FHP:1,2014-05-01T19:30:00Z,28.1530,-82.8010,0.546,1111122 
COMPS,ioos:station:USF.COMPS:FHP:1,2014-05-01T19:36:00Z,28.1530,-82.8010,0.52,1111122 
COMPS,ioos:station:USF.COMPS:FHP:1,2014-05-01T19:42:00Z,28.1530,-82.8010,0.486,1111122 
COMPS,ioos:station:USF.COMPS:FHP:1,2014-05-01T19:48:00Z,28.1530,-82.8010,0.472,1111122 
COMPS,ioos:station:USF.COMPS:FHP:1,2014-05-01T19:54:00Z,28.1530,-82.8010,0.459,1111122 
COMPS,ioos:station:USF.COMPS:FHP:1,2014-05-01T20:00:00Z,28.1530,-82.8010,0.436,1111122 
COMPS,ioos:station:USF.COMPS:FHP:1,2014-05-01T20:06:00Z,28.1530,-82.8010,0.41,1111122 
COMPS,ioos:station:USF.COMPS:FHP:1,2014-05-01T20:12:00Z,28.1530,-82.8010,0.399,1111122 
COMPS,ioos:station:USF.COMPS:FHP:1,2014-05-01T20:18:00Z,28.1530,-82.8010,0.374,1111122 
COMPS,ioos:station:USF.COMPS:FHP:1,2014-05-01T20:24:00Z,28.1530,-82.8010,0.351,1111122 
COMPS,ioos:station:USF.COMPS:FHP:1,2014-05-01T20:30:00Z,28.1530,-82.8010,0.344,1111122 
COMPS,ioos:station:USF.COMPS:FHP:1,2014-05-01T20:36:00Z,28.1530,-82.8010,0.313,1111122 
COMPS,ioos:station:USF.COMPS:FHP:1,2014-05-01T20:42:00Z,28.1530,-82.8010,0.288,1111122 
COMPS,ioos:station:USF.COMPS:FHP:1,2014-05-01T20:48:00Z,28.1530,-82.8010,0.259,1111122 
COMPS,ioos:station:USF.COMPS:FHP:1,2014-05-01T20:54:00Z,28.1530,-82.8010,0.242,1111122 
COMPS,ioos:station:USF.COMPS:FHP:1,2014-05-01T21:00:00Z,28.1530,-82.8010,0.217,1111122 
COMPS,ioos:station:USF.COMPS:FHP:1,2014-05-01T21:06:00Z,28.1530,-82.8010,0.206,1111122 
COMPS,ioos:station:USF.COMPS:FHP:1,2014-05-01T21:12:00Z,28.1530,-82.8010,0.185,1111122 
COMPS,ioos:station:USF.COMPS:FHP:1,2014-05-01T21:18:00Z,28.1530,-82.8010,0.177,1111122 
COMPS,ioos:station:USF.COMPS:FHP:1,2014-05-01T21:24:00Z,28.1530,-82.8010,0.153,1111122 
COMPS,ioos:station:USF.COMPS:FHP:1,2014-05-01T21:30:00Z,28.1530,-82.8010,0.138,1111122 
COMPS,ioos:station:USF.COMPS:FHP:1,2014-05-01T21:36:00Z,28.1530,-82.8010,0.122,1111122 
COMPS,ioos:station:USF.COMPS:FHP:1,2014-05-01T21:42:00Z,28.1530,-82.8010,0.092,1111122 
COMPS,ioos:station:USF.COMPS:FHP:1,2014-05-01T21:48:00Z,28.1530,-82.8010,0.083,1111122 
COMPS,ioos:station:USF.COMPS:FHP:1,2014-05-01T21:54:00Z,28.1530,-82.8010,0.049,1111122 
COMPS,ioos:station:USF.COMPS:FHP:1,2014-05-01T22:00:00Z,28.1530,-82.8010,0.033,1111122 
COMPS,ioos:station:USF.COMPS:FHP:1,2014-05-01T22:06:00Z,28.1530,-82.8010,0.01,1111122 
COMPS,ioos:station:USF.COMPS:FHP:1,2014-05-01T22:12:00Z,28.1530,-82.8010,-0.01,1111122 
COMPS,ioos:station:USF.COMPS:FHP:1,2014-05-01T22:18:00Z,28.1530,-82.8010,-0.034,1111122 
COMPS,ioos:station:USF.COMPS:FHP:1,2014-05-01T22:24:00Z,28.1530,-82.8010,-0.055,1111122 
COMPS,ioos:station:USF.COMPS:FHP:1,2014-05-01T22:30:00Z,28.1530,-82.8010,-0.078,1111122 
COMPS,ioos:station:USF.COMPS:FHP:1,2014-05-01T22:36:00Z,28.1530,-82.8010,-0.102,1111122 
COMPS,ioos:station:USF.COMPS:FHP:1,2014-05-01T22:42:00Z,28.1530,-82.8010,-0.125,1111122 
COMPS,ioos:station:USF.COMPS:FHP:1,2014-05-01T22:48:00Z,28.1530,-82.8010,-0.146,1111122 
COMPS,ioos:station:USF.COMPS:FHP:1,2014-05-01T22:54:00Z,28.1530,-82.8010,-0.169,1111122 
COMPS,ioos:station:USF.COMPS:FHP:1,2014-05-01T23:00:00Z,28.1530,-82.8010,-0.191,1111122 
COMPS,ioos:station:USF.COMPS:FHP:1,2014-05-01T23:06:00Z,28.1530,-82.8010,-0.218,1111122 
COMPS,ioos:station:USF.COMPS:FHP:1,2014-05-01T23:12:00Z,28.1530,-82.8010,-0.234,1111122 
COMPS,ioos:station:USF.COMPS:FHP:1,2014-05-01T23:18:00Z,28.1530,-82.8010,-0.256,1111122 
COMPS,ioos:station:USF.COMPS:FHP:1,2014-05-01T23:24:00Z,28.1530,-82.8010,-0.272,1111122 
COMPS,ioos:station:USF.COMPS:FHP:1,2014-05-01T23:30:00Z,28.1530,-82.8010,-0.288,1111122 
COMPS,ioos:station:USF.COMPS:FHP:1,2014-05-01T23:36:00Z,28.1530,-82.8010,-0.305,1111122 
COMPS,ioos:station:USF.COMPS:FHP:1,2014-05-01T23:42:00Z,28.1530,-82.8010,-0.322,1111122 
COMPS,ioos:station:USF.COMPS:FHP:1,2014-05-01T23:48:00Z,28.1530,-82.8010,-0.332,1111122 
COMPS,ioos:station:USF.COMPS:FHP:1,2014-05-01T23:54:00Z,28.1530,-82.8010,-0.344,1111122 
COMPS,ioos:station:USF.COMPS:FHP:1,2014-05-02T00:00:00Z,28.1530,-82.8010,-0.357,1111122 
COMPS,ioos:station:USF.COMPS:FHP:1,2014-05-02T00:06:00Z,28.1530,-82.8010,-0.373,1111122 
COMPS,ioos:station:USF.COMPS:FHP:1,2014-05-02T00:12:00Z,28.1530,-82.8010,-0.383,1111122 
COMPS,ioos:station:USF.COMPS:FHP:1,2014-05-02T00:24:00Z,28.1530,-82.8010,-0.407,1111122 
COMPS,ioos:station:USF.COMPS:FHP:1,2014-05-02T00:42:00Z,28.1530,-82.8010,-0.427,1111122 
COMPS,ioos:station:USF.COMPS:FHP:1,2014-05-02T00:48:00Z,28.1530,-82.8010,-0.44,1111122 
COMPS,ioos:station:USF.COMPS:FHP:1,2014-05-02T01:06:00Z,28.1530,-82.8010,-0.454,1111122 
COMPS,ioos:station:USF.COMPS:FHP:1,2014-05-02T01:18:00Z,28.1530,-82.8010,-0.454,1111122 
COMPS,ioos:station:USF.COMPS:FHP:1,2014-05-02T01:24:00Z,28.1530,-82.8010,-0.458,1111122 
COMPS,ioos:station:USF.COMPS:FHP:1,2014-05-02T01:30:00Z,28.1530,-82.8010,-0.454,1111122 
COMPS,ioos:station:USF.COMPS:FHP:1,2014-05-02T01:36:00Z,28.1530,-82.8010,-0.451,1111122 
COMPS,ioos:station:USF.COMPS:FHP:1,2014-05-02T01:42:00Z,28.1530,-82.8010,-0.44,1111122 
COMPS,ioos:station:USF.COMPS:FHP:1,2014-05-02T01:48:00Z,28.1530,-82.8010,-0.434,1111122 
COMPS,ioos:station:USF.COMPS:FHP:1,2014-05-02T01:54:00Z,28.1530,-82.8010,-0.43,1111122 
COMPS,ioos:station:USF.COMPS:FHP:1,2014-05-02T02:00:00Z,28.1530,-82.8010,-0.422,1111122 
COMPS,ioos:station:USF.COMPS:FHP:1,2014-05-02T02:06:00Z,28.1530,-82.8010,-0.404,1111122 
COMPS,ioos:station:USF.COMPS:FHP:1,2014-05-02T02:12:00Z,28.1530,-82.8010,-0.378,1111122 
COMPS,ioos:station:USF.COMPS:FHP:1,2014-05-02T02:18:00Z,28.1530,-82.8010,-0.373,1111122 
COMPS,ioos:station:USF.COMPS:FHP:1,2014-05-02T02:24:00Z,28.1530,-82.8010,-0.352,1111122 
COMPS,ioos:station:USF.COMPS:FHP:1,2014-05-02T02:30:00Z,28.1530,-82.8010,-0.346,1111122 
COMPS,ioos:station:USF.COMPS:FHP:1,2014-05-02T02:36:00Z,28.1530,-82.8010,-0.338,1111122 
COMPS,ioos:station:USF.COMPS:FHP:1,2014-05-02T02:42:00Z,28.1530,-82.8010,-0.317,1111122 
COMPS,ioos:station:USF.COMPS:FHP:1,2014-05-02T02:48:00Z,28.1530,-82.8010,-0.298,1111122 
COMPS,ioos:station:USF.COMPS:FHP:1,2014-05-02T02:54:00Z,28.1530,-82.8010,-0.28,1111122 
COMPS,ioos:station:USF.COMPS:FHP:1,2014-05-02T03:00:00Z,28.1530,-82.8010,-0.257,1111122 
COMPS,ioos:station:USF.COMPS:FHP:1,2014-05-02T03:06:00Z,28.1530,-82.8010,-0.238,1111122 
COMPS,ioos:station:USF.COMPS:FHP:1,2014-05-02T03:12:00Z,28.1530,-82.8010,-0.213,1111122 
COMPS,ioos:station:USF.COMPS:FHP:1,2014-05-02T03:18:00Z,28.1530,-82.8010,-0.179,1111122 
COMPS,ioos:station:USF.COMPS:FHP:1,2014-05-02T03:24:00Z,28.1530,-82.8010,-0.171,1111122 
COMPS,ioos:station:USF.COMPS:FHP:1,2014-05-02T03:30:00Z,28.1530,-82.8010,-0.139,1111122 
COMPS,ioos:station:USF.COMPS:FHP:1,2014-05-02T03:36:00Z,28.1530,-82.8010,-0.12,1111122 
COMPS,ioos:station:USF.COMPS:FHP:1,2014-05-02T03:42:00Z,28.1530,-82.8010,-0.099,1111122 
COMPS,ioos:station:USF.COMPS:FHP:1,2014-05-02T03:48:00Z,28.1530,-82.8010,-0.071,1111122 
COMPS,ioos:station:USF.COMPS:FHP:1,2014-05-02T03:54:00Z,28.1530,-82.8010,-0.056,1111122 
COMPS,ioos:station:USF.COMPS:FHP:1,2014-05-02T04:00:00Z,28.1530,-82.8010,-0.032,1111122 
COMPS,ioos:station:USF.COMPS:FHP:1,2014-05-02T04:06:00Z,28.1530,-82.8010,-0.004,1111122 
COMPS,ioos:station:USF.COMPS:FHP:1,2014-05-02T04:12:00Z,28.1530,-82.8010,0.019,1111122 
COMPS,ioos:station:USF.COMPS:FHP:1,2014-05-02T04:18:00Z,28.1530,-82.8010,0.028,1111122 
COMPS,ioos:station:USF.COMPS:FHP:1,2014-05-02T04:24:00Z,28.1530,-82.8010,0.05,1111122 
COMPS,ioos:station:USF.COMPS:FHP:1,2014-05-02T04:30:00Z,28.1530,-82.8010,0.079,1111122 